This is the latest recevied weather packets stored in our database for station/object N0ZRD-10. If no packets are shown the sender has not sent any weather packets the latest 10 day(s).
| Time | Temp. | Humidity | Pressure | Rain* | Wind** | Luminosity | Snow |
|---|---|---|---|---|---|---|---|
| 1777063708 | 13.33° C | 26% | - | 0 mm | - | - | - |
| 1777063107 | 12.78° C | 28% | - | 0 mm | - | - | - |
| 1777062506 | 12.78° C | 27% | - | 0 mm | - | - | - |
| 1777061905 | 12.78° C | 31% | - | 0 mm | - | - | - |
| 1777061304 | 12.78° C | 28% | - | 0 mm | - | - | - |
| 1777060703 | 12.22° C | 30% | - | 0 mm | - | - | - |
| 1777060102 | 12.22° C | 31% | - | 0 mm | - | - | - |
| 1777058298 | 12.22° C | 35% | - | 0 mm | - | - | - |
| 1777057697 | 11.67° C | 33% | - | 0 mm | - | - | - |
| 1777056495 | 12.22° C | 32% | - | 0 mm | - | - | - |
| 1777055894 | 11.67° C | 34% | - | 0 mm | - | - | - |
| 1777055293 | 10.56° C | 38% | - | 0 mm | - | - | - |
| 1777054692 | 11.11° C | 37% | - | 0 mm | - | - | - |
| 1777054091 | 11.11° C | 38% | - | 0 mm | - | - | - |
| 1777053490 | 10.56° C | 37% | - | 0 mm | - | - | - |
| 1777052287 | 9.44° C | 37% | - | 0 mm | - | - | - |
| 1777051686 | 9.44° C | 42% | - | 0 mm | - | - | - |
| 1777051084 | 8.89° C | 40% | - | 0 mm | - | - | - |
| 1777050483 | 8.89° C | 43% | - | 0 mm | - | - | - |
| 1777049883 | 8.33° C | 41% | - | 0 mm | - | - | - |
| 1777049282 | 9.44° C | 42% | - | 0 mm | - | - | - |
| 1777048681 | 8.33° C | 44% | - | 0 mm | - | - | - |
| 1777047476 | 7.22° C | 45% | - | 0.25 mm | - | - | - |
| 1777046272 | 6.67° C | 48% | - | 0.25 mm | - | - | - |
| 1777045671 | 6.11° C | 50% | - | 0.25 mm | - | - | - |
* Rain latest hour (hover to see other rain measurements)
** Current wind speed in m/s (hover to see current wind gust speed)